User: anonymous   Login
Location: Unspecified
(0.0000°N, 0.0000°E)
Time: 23:40:31
(UTC+00:00)
Language:

UNISAT 6 - Orbit

View from above orbital plane
View from above orbital plane
View from above satellite
View from above satellite

Ground track
Ground track

The orbit data is extracted from the following two-line orbital elements,

1 40012U 14033C   19019.51096219  .00000100  00000-0  22457-4 0  9996
2 40012  97.7783 252.3831 0057409 221.3203 138.3656 14.73916383246562
Epoch (UTC): 19 January 2019 12:15:47
Eccentricity: 0.0057409
inclination: 97.7783°
perigee height: 608 km
apogee height: 689 km
right ascension of ascending node: 252.3831°
argument of perigee: 221.3203°
revolutions per day: 14.73916383
mean anomaly at epoch: 138.3656°
orbit number at epoch: 24656

The dashed part of the orbit path shows where the satellite is in the earth's shadow,  

DLR